NORSAT 1

Satellite information

Favourite Embed

Satellite Type and Status

PAYLOADIN ORBIT

Key statistics

Satellite NORSAT 1 at a glance.

Uptime

2976

Days in orbit

Revolutions

≈ 15.1

Per day

Orbit

SSO

Sun Synchronous Orbit

Inclination

97.4

Latest

Satellite identification and parameters

Extended collection of information and parameters for NORSAT 1.

Object identification

Identified? True

Debris? False

Object name: NORSAT 1

International designator: 2017-042B

Object number (NORAD): 42826

Object ID (CCSDS): 42826

Country: NORWAY (NOR)

Current information (Y/N): Y

RCS size: MEDIUM

Orbital parameters

Period: 95.431 minutes

Inclination: 97.4237 deg

SMA: 6917.54 km

Apoapsis: 544.639 km

Periapsis: 534.171 km

RAAN: 59.1712 deg

Eccentricy: 0.00075666

Argument of periapsis: 355.5934 deg

Mean anomaly: 4.5227 deg

Mean motion: 15.08951274 rev/day

Mean motion (dot): 0.00008251 rev/day2

B* drag term: 0.0005259442 1/REarth

Two-line elements (TLE)

Creation date: Sept. 6, 2025, 2:09 a.m.

Reference frame: TEME

Reference center: EARTH

Epoch: Sept. 5, 2025, 5:23 p.m. UTC

TLE line 0: 0 NORSAT 1

TLE line 1: 1 42826U 17042B 25248.72448187 .00008251 00000-0 52594-3 0 9992

TLE line 2: 2 42826 97.4237 59.1712 0007567 355.5934 4.5227 15.08951274444251

Live tracking on map

Real-time ground track for satellite NORSAT 1.

In-orbit conjunctions

There are no conjunctions computed for NORSAT 1, at the moment. Check back to stay up to date, as we update our databases every day.

Go to all conjunctions

Associated space launch

Kanopus-V-IK is a small Russian remote sensing satellite for monitoring wildfires. Weighing about 473 kg, it is intended for 5 years of operation in a 510 km sun-synchronous orbit.

NORSAT 1 was lifted into orbit during the mission ‘Soyuz-2.1a/Fregat | Kanopus-V-IK’, on board a Soyuz 2.1a/Fregat-M space rocket.

The launch took place on July 14, 2017, 6:36 a.m. from 31/6.

For more information about the launch, click the button.

Launch to space Soyuz-2.1a/Fregat | Kanopus-V-IK
Soyuz-2.1a/Fregat | Kanopus-V-IK

Agency: N/A

Status: Launch was a Partial Failure

Launch date: July 14, 2017, 6:36 a.m. UTC

Rocket: Soyuz 2.1a/Fregat-M

Launch pad: 31/6

Location: Baikonur Cosmodrome, Republic of Kazakhstan

...

Latest news about this satellite

There are no fresh news available about this satellite. Check back as we update our databases every day.


Newsletter sign-up

Weekly statistics, charts and insights to help you stay on top of the space industry.